Thomasville, PA

4:14 AM EST on February 21, 2017 (GMT -0500)
York

Weather History for KTHV - March, 2014

Change the Weather History Date:

Sunday, March 2, 2014

  Actual Average Record
Temperature  
Mean Temperature 34 °F -  
Max Temperature 37 °F 0 °F 68 °F (2004)
Min Temperature 30 °F - 14 °F (2009)
Degree Days  
Heating Degree Days 32    
Moisture  
Dew Point 29 °F    
Average Humidity 83    
Maximum Humidity 93    
Minimum Humidity 62    
Precipitation  
Precipitation 0.17 in - - ()
Sea Level Pressure  
Sea Level Pressure 30.05 in    
Wind  
Wind Speed 2 mph (North)    
Max Wind Speed 10 mph    
Max Gust Speed -    
Visibility 4 miles    
Events Rain , Snow    
Averages and records for this station are not official NWS values.
T = Trace of Precipitation, MM = Missing Value Source: NWS Daily Summary

Daily Weather History Graph

Daily Weather History Graph

Search for Another Location

Airport or City:

Trip Planner

Search our weather history database for the weather conditions in past years. The results will help you decide how hot, cold, wet, or windy it might be!

Date:

Astronomy

Mar. 02, 2014 Rise Set
Actual Time 6:39 AM EST 6:00 PM EST
Civil Twilight 6:12 AM EST 6:27 PM EST
Nautical Twilight 5:40 AM EST 6:58 PM EST
Astronomical Twilight 5:09 AM EST 7:30 PM EST
Moon 7:09 AM EST (3/2) 7:54 PM EST (3/2)
Length of Visible Light 12h 15m
Length of Day
11h 21m
Waxing Crescent, 3% of the Moon is Illuminated
Mar 2
Waxing Crescent
Mar 8
First Quarter
Mar 16
Full
Mar 23
Last Quarter
Mar 30
New

Hourly Weather History & Observations

Time (EST) Temp. Windchill Dew Point Humidity Pressure Visibility Wind Dir Wind Speed Gust Speed Precip Events Conditions
12:53 AM 33.1 °F - 23.0 °F 66% 30.15 in 10.0 mi Calm Calm - N/A   Overcast
1:53 AM 33.1 °F - 27.0 °F 78% 30.13 in 9.0 mi Calm Calm - N/A   Overcast
2:53 AM 33.1 °F - 26.1 °F 75% 30.12 in 7.0 mi Calm Calm - N/A   Overcast
3:53 AM 34.0 °F - 26.1 °F 73% 30.09 in 8.0 mi Calm Calm - N/A   Overcast
4:53 AM 34.0 °F - 26.1 °F 73% 30.08 in 8.0 mi Calm Calm - N/A   Overcast
5:53 AM 34.0 °F - 25.0 °F 70% 30.07 in 9.0 mi Calm Calm - N/A   Overcast
6:53 AM 34.0 °F - 28.9 °F 82% 30.07 in 8.0 mi Calm Calm - N/A   Overcast
7:53 AM 34.0 °F - 27.0 °F 75% 30.09 in 7.0 mi Calm Calm - N/A   Overcast
8:53 AM 36.0 °F - 24.1 °F 62% 30.10 in 8.0 mi Calm Calm - N/A   Overcast
10:53 AM 37.0 °F - 25.0 °F 62% 30.09 in 8.0 mi Calm Calm - N/A   Overcast
11:53 AM 37.9 °F - 26.1 °F 62% 30.07 in 8.0 mi Calm Calm - N/A   Overcast
12:53 PM 37.9 °F - 27.0 °F 65% 30.05 in 5.0 mi Calm Calm - 0.00 in Rain Light Rain
1:53 PM 37.9 °F - 30.0 °F 73% 30.04 in 4.0 mi Calm Calm - 0.01 in Rain Light Rain
2:53 PM 37.0 °F 32.4 °F 32.0 °F 82% 30.04 in 3.0 mi North 5.8 mph - 0.03 in Rain Light Rain
3:10 PM 36.0 °F 31.1 °F 33.1 °F 89% 30.02 in 2.5 mi North 5.8 mph - 0.01 in Rain Light Rain
3:29 PM 36.0 °F 33.3 °F 33.1 °F 89% 30.02 in 2.0 mi NNW 3.5 mph - 0.02 in Rain Light Rain
3:45 PM 36.0 °F - 33.1 °F 89% 30.02 in 1.8 mi Calm Calm - 0.03 in Rain Light Rain
3:53 PM 35.1 °F 32.2 °F 33.1 °F 92% 30.04 in 1.5 mi NNW 3.5 mph - 0.05 in Rain Light Rain
4:31 PM 35.1 °F - 33.1 °F 92% 30.02 in 1.2 mi Calm Calm - 0.03 in Rain Light Rain
4:43 PM 35.1 °F - 33.1 °F 92% 30.02 in 1.0 mi Calm Calm - 0.04 in Rain Light Rain
4:53 PM 35.1 °F 31.0 °F 33.1 °F 92% 30.04 in 1.2 mi North 4.6 mph - 0.05 in Rain Light Rain
5:16 PM 35.1 °F 31.0 °F 33.1 °F 92% 30.02 in 1.2 mi North 4.6 mph - 0.02 in Rain Light Rain
5:36 PM 34.0 °F 29.8 °F 32.0 °F 92% 30.02 in 2.0 mi North 4.6 mph - 0.02 in Rain Light Rain
5:49 PM 33.8 °F 28.6 °F 32.0 °F 93% 30.02 in 1.8 mi North 5.8 mph - 0.02 in Rain Light Rain
5:53 PM 34.0 °F 29.8 °F 32.0 °F 92% 30.05 in 2.0 mi North 4.6 mph - 0.02 in Rain Light Rain
5:59 PM 34.0 °F 29.8 °F 32.0 °F 92% 30.03 in 2.5 mi North 4.6 mph - 0.00 in Rain Light Rain
6:06 PM 34.0 °F 29.8 °F 32.0 °F 92% 30.03 in 3.0 mi North 4.6 mph - 0.00 in   Overcast
6:23 PM 34.0 °F 29.8 °F 32.0 °F 92% 30.03 in 3.0 mi North 4.6 mph - 0.00 in   Overcast
6:45 PM 34.0 °F 31.0 °F 30.9 °F 89% 30.04 in 3.0 mi North 3.5 mph - 0.00 in   Overcast
6:53 PM 34.0 °F 31.0 °F 30.9 °F 89% 30.05 in 3.0 mi North 3.5 mph - 0.00 in   Overcast
7:02 PM 33.1 °F 30.0 °F 30.9 °F 92% 30.03 in 3.0 mi NNW 3.5 mph - N/A   Overcast
7:43 PM 33.1 °F - 30.9 °F 92% 30.03 in 3.0 mi Calm Calm - N/A   Overcast
7:53 PM 33.1 °F - 30.9 °F 92% 30.05 in 3.0 mi Calm Calm - N/A   Overcast
8:53 PM 33.1 °F 30.0 °F 28.0 °F 82% 30.05 in 6.0 mi NNW 3.5 mph - N/A   Haze
9:53 PM 33.1 °F 28.7 °F 27.0 °F 78% 30.03 in 9.0 mi North 4.6 mph - N/A   Overcast
10:53 PM 33.1 °F 28.7 °F 26.1 °F 75% 30.04 in 6.0 mi North 4.6 mph - 0.00 in Snow Light Snow
11:19 PM 32.0 °F 23.6 °F 26.1 °F 79% 30.02 in 2.0 mi North 10.4 mph - 0.00 in Snow Light Snow
11:31 PM 30.9 °F 24.3 °F 27.0 °F 85% 30.01 in 2.0 mi North 6.9 mph - 0.01 in Snow Light Snow
11:39 PM 30.9 °F 23.5 °F 27.0 °F 85% 30.02 in 1.8 mi North 8.1 mph - 0.01 in Snow Light Snow
11:46 PM 30.0 °F 21.7 °F 27.0 °F 88% 30.02 in 2.5 mi North 9.2 mph - 0.01 in Snow Light Snow
11:53 PM 30.0 °F 22.4 °F 26.1 °F 85% 30.04 in 2.5 mi North 8.1 mph - 0.01 in Snow Light Snow